Location: Camoins-les-Bains
(43.3054°N, 5.5177°E)
Time: 10:02:22
(UTC+00:00)

Daily predictions for brighter satellites

Satellite Brightness Start Highest point End
(mag) Time Altitude Azimuth Time Altitude Azimuth Time Altitude Azimuth
Cosmos 2219 Rocket 3.8 18:21:55 10° SW 18:27:13 40° WNW 18:32:33 10° NNE
KORONAS-FOTON 3.8 18:28:22 10° N 18:32:10 58° E 18:35:54 10° SSE
STARLINK-1246 3.6 18:28:52 10° SW 18:32:52 60° SE 18:36:52 10° ENE
STARLINK-1109 4.5 18:29:24 10° NW 18:33:11 37° NNE 18:36:58 10° E
NOSS 3-1 (A) 4.4 18:25:37 10° NW 18:33:18 77° WSW 18:42:01 10° SSE
Cosmos 1980 3.9 18:30:58 10° SSW 18:36:39 82° WNW 18:42:23 10° NNE
CZ-2D R/B 4.1 18:33:17 10° S 18:37:01 54° W 18:40:47 10° NNW
Cosmos 1766 3.3 18:33:10 10° S 18:37:07 63° E 18:41:04 10° NNE
Cosmos 1943 Rocket 3.8 18:33:47 10° N 18:37:23 17° NE 18:40:58 10° E
STARLINK-1091 4.4 18:34:04 10° NW 18:37:52 38° NNE 18:41:39 10° E
S3M 4.0 18:32:35 10° S 18:38:53 70° E 18:45:16 10° NNE
Ariane Rocket 3.1 18:36:02 10° SSE 18:40:58 55° ENE 18:45:56 10° N
YAOGAN 1 3.7 18:37:01 10° S 18:41:10 47° W 18:45:23 10° NNW
STARLINK-1224 3.5 18:37:47 10° SW 18:41:48 71° SE 18:45:49 10° ENE
BREEZE-M DEB (TANK) 3.6 18:30:01 10° WNW 18:43:53 79° SSW 18:47:18 10° SE
Cosmos 1455 Rocket 3.2 18:39:53 10° S 18:44:04 51° E 18:48:18 10° NNE
Cosmos 1386 Rocket 4.4 18:38:34 10° N 18:44:36 69° E 18:50:35 10° SSE
SL-08 ROCKET BODY 4.4 18:38:42 10° N 18:44:50 68° E 18:50:49 10° SSE
STARLINK-1225 3.5 18:42:28 10° SW 18:46:29 77° SE 18:50:32 10° ENE
STARLINK-1203 3.4 18:44:29 10° SW 18:48:26 86° SE 18:52:24 10° NE
Cosmos 1110 Rocket 4.0 18:43:11 10° NNW 18:48:26 68° ENE 18:53:36 10° SSE
Cosmos 332 Rocket 3.9 18:44:44 10° NNW 18:49:40 82° WSW 18:54:34 10° SSE
SL-16 R/B 2.5 18:44:50 10° S 18:50:10 45° ESE 18:55:32 10° NE
Cosmos 2333 Rocket 4.5 18:46:03 10° WSW 18:50:50 27° NW 18:55:38 10° N
STARLINK-1072 4.1 18:47:14 10° NW 18:51:06 45° NNE 18:54:14 14° E
STARLINK-1230 3.5 18:47:05 10° SW 18:51:07 83° SE 18:55:10 10° NE
Cosmos 1892 Rocket 3.6 18:47:43 10° N 18:52:14 83° E 18:56:42 10° S
USA 186 2.3 18:50:08 10° SSE 18:53:25 44° ENE 18:56:41 10° N
Cosmos 1626 Rocket 4.4 18:49:52 10° NNE 18:53:44 29° ENE 18:57:13 12° SE
Cosmos 1953 4.0 18:53:54 14° E 18:54:16 14° E 18:56:19 10° NE
ARGOS Delta rocket 4.0 18:49:22 10° SSE 18:54:22 72° ENE 18:59:42 10° N
STARLINK-1234 4.2 18:51:44 10° W 18:54:34 37° NNW 18:57:23 10° NE
STARLINK-1096 4.0 18:51:40 10° NW 18:55:34 48° NNE 18:58:31 16° E
STARLINK-1243 3.5 18:51:47 10° SW 18:55:49 90° SE 18:59:52 10° NE
Cosmos 1626 2.6 18:53:12 10° N 18:56:43 39° ENE 19:00:12 10° SSE
STARLINK-1079 3.9 18:56:09 10° NW 19:00:04 51° NNE 19:02:49 18° E
Okean 1-7 Rocket 3.5 18:55:43 10° N 19:00:09 86° E 19:04:31 10° S
STARLINK-1236 3.6 18:56:26 10° SW 19:00:29 84° NNW 19:04:31 10° NE
SJ-11-01 4.4 18:59:34 10° S 19:04:15 81° WSW 19:09:00 10° NNW
STARLINK-1116 3.8 19:00:36 10° NW 19:04:33 55° NNE 19:07:07 20° ESE
H-2A R/B 2.0 18:59:55 10° SSE 19:05:15 75° ENE 19:10:27 10° N
Cosmos 883 Rocket 4.4 19:02:59 10° S 19:09:06 72° E 19:15:21 10° NNE
STARLINK-1269 3.8 19:05:52 10° WSW 19:09:54 72° NNW 19:13:56 10° NE
STARLINK-1118 3.4 19:08:32 10° WNW 19:10:34 32° SW 19:11:31 21° S
Cosmos 1544 Rocket 3.5 19:07:07 10° S 19:11:28 77° E 19:15:55 10° N
STARLINK-1094 3.7 19:09:33 10° NW 19:13:33 63° NNE 19:15:46 24° ESE
Cosmos 1745 Rocket 4.5 19:08:03 10° NNW 19:14:18 66° W 19:20:27 10° S
STARLINK-1200 3.9 19:10:35 10° WSW 19:14:35 67° NNW 19:18:38 10° NE
Cosmos 2297 3.7 19:10:31 10° NNW 19:16:12 70° ENE 19:20:56 15° SE
USA 234 3.2 19:09:39 10° NE 19:16:12 72° SE 19:22:43 10° SW
CZ-2C R/B 4.0 19:12:16 10° NNE 19:16:53 48° E 19:21:24 10° S
STARLINK-1117 3.6 19:14:04 10° NW 19:18:04 68° NNE 19:20:07 27° ESE
STARLINK-1192 4.0 19:15:14 10° WSW 19:19:15 62° NNW 19:23:16 10° NE
Cosmos 2237 Rocket 3.6 19:15:14 10° SW 19:20:31 41° WNW 19:25:50 10° NNE
STARLINK-1078 3.5 19:18:33 10° NW 19:22:34 73° NNE 19:24:26 30° ESE
STARLINK-1244 4.1 19:20:04 10° WSW 19:24:03 58° NNW 19:28:01 10° NE
Cosmos 1302 Rocket 4.0 19:20:43 10° NNW 19:26:00 69° ENE 19:29:43 20° SSE
STARLINK-1108 3.5 19:23:04 10° NW 19:27:06 78° NNE 19:28:47 33° ESE
Cosmos 1269 Rocket 4.3 19:22:22 10° SSW 19:27:39 73° WNW 19:32:58 10° NNE
Cosmos 2278 Rocket 4.1 19:23:21 10° NW 19:28:07 28° WSW 19:32:52 10° SSW
STARLINK-1138 4.2 19:24:47 10° WSW 19:28:45 54° NNW 19:32:32 11° NE
CZ-2C R/B 3.0 19:24:06 10° NNE 19:28:55 38° E 19:32:38 16° SSE
STARLINK-1066 3.2 19:28:21 10° WNW 19:31:28 60° SW 19:32:18 41° SSE
STARLINK-1071 3.5 19:27:35 10° NW 19:31:37 84° NNE 19:33:08 37° ESE
STARLINK-1081 3.2 19:28:49 10° WNW 19:31:54 59° SW 19:32:41 42° SSE
STARLINK-1070 3.2 19:29:16 10° WNW 19:32:21 58° SW 19:33:06 42° SSE
STARLINK-1124 3.5 19:28:29 10° NW 19:32:39 86° NNE 19:34:14 37° ESE
STARLINK-1069 3.2 19:29:40 10° WNW 19:32:47 57° SW 19:33:34 42° SSE
STARLINK-1085 3.2 19:30:07 10° WNW 19:33:14 57° SW 19:34:00 42° SSE
ARGOS 3.3 19:27:57 10° S 19:33:21 75° WSW 19:38:46 10° NNW
STARLINK-1143 4.3 19:29:35 10° WSW 19:33:33 51° NNW 19:37:08 12° NE
STARLINK-1086 3.2 19:30:38 10° WNW 19:33:42 56° SW 19:34:25 42° SSE
STARLINK-1095 3.3 19:31:04 10° WNW 19:34:09 55° SW 19:34:50 42° S
Cosmos 2251 Rocket 4.0 19:29:40 10° SSE 19:34:32 37° ESE 19:39:27 10° NE
STARLINK-1077 3.3 19:31:31 10° WNW 19:34:35 55° SW 19:35:16 43° S
Meteor 1-24 Rocket 4.5 19:29:38 10° NNW 19:34:59 52° W 19:40:09 10° S
STARLINK-1075 3.3 19:31:59 10° WNW 19:35:02 54° SW 19:35:42 43° S
STARLINK-1093 3.3 19:32:24 10° WNW 19:35:30 54° SW 19:36:10 42° S
STARLINK-1074 3.3 19:32:51 10° WNW 19:35:56 53° SW 19:36:36 42° S
STARLINK-1110 3.4 19:32:06 10° NW 19:36:09 90° SSW 19:37:29 41° SE
STARLINK-1087 3.3 19:33:20 10° WNW 19:36:23 52° SW 19:37:00 43° S
STARLINK-1088 3.4 19:33:47 10° WNW 19:36:50 52° SW 19:37:26 43° S
STARLINK-1115 3.4 19:34:12 10° WNW 19:37:17 52° SW 19:37:55 43° S
STARLINK-1076 3.4 19:34:38 10° WNW 19:37:44 51° SW 19:38:20 43° S
STARLINK-1092 3.4 19:35:07 10° WNW 19:38:11 50° SW 19:38:47 43° S
STARLINK-1080 3.4 19:35:36 10° WNW 19:38:38 50° SW 19:39:10 43° S
SL-24 R/B 3.9 19:34:11 10° NNE 19:38:47 71° E 19:42:48 10° S
STARLINK-1090 3.4 19:36:02 10° WNW 19:39:05 49° SW 19:39:36 43° S
STARLINK-1089 3.4 19:36:30 10° WNW 19:39:32 48° SW 19:40:02 43° S
STARLINK-1107 3.4 19:36:57 10° WNW 19:39:59 48° SW 19:40:28 43° S
Cosmos 1470 2.8 19:36:31 10° S 19:40:22 80° W 19:44:17 10° N
Cosmos 2315 Rocket 4.2 19:38:12 10° SSW 19:44:29 78° W 19:50:53 10° N
SL-08 RB Rocket 3.8 19:40:53 15° S 19:44:33 75° WSW 19:49:08 10° NNW
STARLINK-1122 3.5 19:41:16 10° WNW 19:45:18 77° SW 19:46:17 49° SE
SJ-6B 3.5 19:42:00 12° S 19:45:42 55° W 19:49:46 10° NNW
MetOp-A 4.0 19:42:28 21° SSE 19:46:07 81° ENE 19:51:30 10° NNW
Resurs 1-3 3.5 19:44:43 36° SSE 19:46:27 72° ENE 19:50:51 10° N
ISS -2.2 19:44:49 10° NW 19:47:42 25° NNE 19:48:11 24° NNE
Cosmos 1758 3.5 19:44:12 10° SSW 19:48:17 72° W 19:52:23 10° N
STARLINK-1126 3.6 19:45:54 10° WNW 19:49:56 71° SW 19:50:44 53° SSE
CZ-2C R/B 4.0 19:47:15 10° S 19:52:08 45° W 19:56:50 10° NNW
BREEZE-M DEB (TANK) 4.3 19:46:11 10° WNW 19:52:11 39° N 19:53:10 31° NE
BREEZE M DEB (TANK) 4.0 19:40:58 10° SW 19:52:35 49° SSE 19:53:49 40° ESE
IRIDIUM 104 4.2 19:48:27 10° N 19:53:42 76° E 19:56:26 29° SSE
Resurs 01 Rocket 1.6 19:53:05 51° ESE 19:53:50 60° ENE 19:58:11 10° N
STARLINK-1082 3.7 19:50:29 10° WNW 19:54:29 66° SW 19:55:08 55° S
STARLINK-1130 (DARKSAT) 4.4 19:50:47 10° NW 19:54:42 39° NNE 19:55:22 36° NE
Abrixas rocket 3.8 19:52:53 10° SW 19:54:13 24° SW 19:54:13 24° SW
Cosmos 2369 Rocket 2.5 19:51:03 10° NNW 19:56:34 47° ENE 19:57:50 40° E
STARLINK-1100 3.7 19:55:03 10° WNW 19:59:03 60° SW 19:59:31 55° S
STARLINK-1084 4.3 19:55:45 10° NW 19:59:42 41° NNE 20:00:09 40° NE
Meteor 2-15 Rocket 4.5 19:54:27 10° S 20:00:32 81° W 20:06:39 10° N
IRIDIUM 114 4.2 19:57:36 10° N 20:02:52 89° W 20:05:35 29° S
STARLINK-1083 3.8 19:59:40 10° WNW 20:03:38 56° SW 20:03:57 54° SSW
SPOT 3 Rocket 3.9 20:00:43 20° S 20:04:21 64° WSW 20:09:33 10° NNW
STARLINK-1098 4.2 20:00:43 10° NW 20:04:41 44° NNE 20:04:55 43° NE
Cosmos 1726 3.5 20:06:30 30° NNE 20:06:30 30° NNE 20:08:32 10° NNE
Nadezhda 1 Rocket 4.2 20:06:17 43° SE 20:07:34 49° E 20:13:42 10° NNE
STARLINK-1125 4.0 20:04:19 10° WNW 20:08:14 51° SW 20:08:23 51° SSW
Cosmos 2228 4.4 20:11:03 26° NE 20:11:03 26° NE 20:13:07 10° NNE
Meteor 1-21 Rocket 4.1 20:03:43 10° N 20:09:19 88° W 20:11:31 38° S
STARLINK-1123 4.2 20:05:42 10° NW 20:09:43 47° NNE 20:09:44 47° NNE
IRIDIUM 103 4.4 20:06:48 10° N 20:12:01 74° W 20:14:45 29° S
STARLINK-1109 4.2 20:08:39 10° WNW 20:12:33 47° SW 20:12:33 47° SW
MOS 1 Rocket 3.6 20:08:43 10° N 20:13:58 82° WNW 20:19:07 11° SSW
STARLINK-1097 4.2 20:10:39 10° NW 20:14:29 49° NNE 20:14:29 49° NNE
STARLINK-1091 4.4 20:13:21 10° WNW 20:17:02 43° SW 20:17:02 43° SW
Cosmos 1943 3.9 20:19:28 36° ENE 20:19:28 36° ENE 20:23:05 10° NE
Cosmos 292 Rocket 3.6 20:14:06 10° NNW 20:18:55 85° ENE 20:19:07 81° SE
STARLINK-1099 4.2 20:15:38 10° NW 20:19:17 51° N 20:19:17 51° N
Cosmos 1943 Rocket 2.1 20:16:18 10° NNW 20:21:52 86° WSW 20:22:52 62° SSE
Cosmos 2074 Rocket 3.9 20:18:11 10° N 20:24:28 85° W 20:26:45 43° S
STARLINK-1104 4.3 20:20:36 10° NW 20:24:04 50° N 20:24:04 50° N
STARLINK-1144 4.4 20:25:33 10° NW 20:28:50 49° NNW 20:28:50 49° NNW
Cosmos 1953 3.4 20:29:29 38° WSW 20:30:15 43° WNW 20:34:03 10° N
Meteor 2-10 4.2 20:28:33 35° SSW 20:30:50 75° W 20:36:22 10° N
SPOT 1/Viking Rocket 4.2 20:32:06 43° NE 20:32:06 43° NE 20:36:16 10° N
NOSS 3-3 (A) 3.7 20:26:09 10° SSW 20:31:55 81° ESE 20:38:27 10° NE
NOSS 3-3 (C) 3.7 20:26:15 10° SSW 20:32:02 80° ESE 20:38:32 10° NE
Spot 2 Rocket 3.5 20:33:06 73° NE 20:33:06 73° NE 20:37:57 10° N
SL-16 R/B 4.1 20:29:32 10° WSW 20:34:27 30° NW 20:39:24 10° N
Cosmos 2084 Rocket 4.0 20:31:38 10° NW 20:35:19 60° NW 20:35:19 60° NW
Cosmos 1610 Rocket 4.3 20:32:15 10° N 20:38:32 81° E 20:39:03 74° SE
Terra 3.7 20:49:36 21° NNE 20:49:36 21° NNE 20:51:37 10° N
Cosmos 2341 Rocket 4.3 20:48:25 10° N 20:53:51 54° NE 20:53:51 54° NE
Cosmos 1603 4.0 20:53:25 35° SW 20:55:46 64° WNW 21:01:22 10° NNE
ATLAS 2AS CENTAUR R/B 3.2 20:49:46 10° NNW 20:57:11 50° NE 20:57:41 49° ENE
USA 234 4.2 20:52:52 10° NE 20:58:58 44° NNW 21:05:05 10° W
Aureole 1 Rocket 4.3 21:07:14 74° ENE 21:07:14 74° ENE 21:13:34 10° NNE
CZ-2C R/B 4.4 21:04:42 10° N 21:09:03 28° WNW 21:13:24 10° WSW
COSMOS 2455 4.1 21:06:44 10° NNW 21:11:09 30° NNE 21:11:09 30° NNE
Cosmos 1656 Rocket 4.5 21:18:29 10° NNW 21:22:37 49° NW 21:22:37 49° NW
ERS-1 Rocket 4.4 21:28:47 35° NNW 21:28:47 35° NNW 21:31:45 10° NNW
Resurs 01 Rocket 4.3 21:30:38 13° W 21:30:42 13° W 21:32:52 10° WNW
Cosmos 2369 Rocket 3.9 21:35:38 10° NW 21:39:39 26° W 21:39:39 26° W
ATLAS 2AS CENTAUR R/B 4.3 22:41:11 10° NW 22:45:07 29° WNW 22:45:07 29° WNW
